GW3210 Weather Reports


Display with metric or nautical units.
time (UTC)temp
F
wind
direction
speed
MPH
gust
MPH
rain 1hr
in
rain 24hr
in
rain mn
in
humidity
%
barometer
mb
20260903030616 57 158 2.0 4.0 0.00 0.43 0.43 83 1010.4
20260903025616 57 135 3.0 5.0 0.00 0.43 0.43 83 1010.3
20260903024616 57 135 3.0 4.0 0.00 0.43 0.43 83 1010.1
20260903023616 57 158 3.0 6.0 0.00 0.43 0.43 83 1010.2
20260903022617 57 180 4.0 9.0 0.00 0.43 0.43 83 1010.1
20260903021636 57 135 3.0 5.0 0.00 0.43 0.43 83 1010.1
20260903020617 57 158 2.0 4.0 0.00 0.43 0.43 83 1009.8
20260903015637 57 158 3.0 6.0 0.00 0.43 0.43 83 1009.8
20260903014617 57 135 3.0 6.0 0.01 0.43 0.43 83 1009.7
20260903013636 57 135 3.0 3.0 0.01 0.43 0.43 83 1009.7
20260903012616 57 158 1.0 1.0 0.01 0.43 0.43 83 1009.6
20260903011616 58 135 4.0 5.0 0.01 0.43 0.43 83 1009.5
20260903010616 58 180 2.0 4.0 0.01 0.43 0.43 83 1009.5
20260903005657 58 158 1.0 4.0 0.01 0.43 0.43 83 1009.4
20260903004616 58 135 4.0 7.0 0.00 0.42 0.42 83 1009.2
20260903003616 58 135 3.0 4.0 0.00 0.42 0.42 83 1009.2
20260903002617 58 158 1.0 3.0 0.00 0.42 0.42 83 1009.2
20260903001616 58 158 2.0 3.0 0.01 0.42 0.42 83 1009.1
20260903000616 58 180 2.0 6.0 0.02 0.42 0.42 83 1009.1
20260902235616 58 158 2.0 4.0 0.04 0.42 0.42 83 1009.1
20260902234616 58 180 2.0 2.0 0.04 0.42 0.42 83 1009.2
20260902233616 57 203 2.0 3.0 0.04 0.42 0.42 83 1009.1
20260902232636 57 203 2.0 4.0 0.04 0.42 0.42 83 1009.1
20260902231617 58 203 2.0 5.0 0.03 0.41 0.41 83 1009.0
20260902230616 58 135 3.0 5.0 0.02 0.40 0.40 83 1008.9
20260902225616 58 135 2.0 3.0 0.00 0.38 0.38 84 1008.9
20260902224616 58 158 2.0 4.0 0.01 0.38 0.38 83 1008.8
20260902223616 58 0.0 1.0 0.01 0.38 0.38 83 1008.8
20260902222616 57 135 2.0 3.0 0.01 0.38 0.38 83 1008.9
20260902221616 57 90 3.0 6.0 0.02 0.38 0.38 83 1008.9
20260902220616 58 90 2.0 4.0 0.03 0.38 0.38 83 1008.8
20260902215616 58 90 2.0 3.0 0.04 0.38 0.38 83 1008.9
20260902214636 58 68 2.0 5.0 0.04 0.37 0.37 83 1008.7
20260902213616 58 158 2.0 3.0 0.06 0.37 0.37 83 1008.8
20260902212616 57 113 3.0 6.0 0.09 0.37 0.37 83 1008.7
20260902211616 57 135 3.0 5.0 0.10 0.36 0.36 82 1008.8
20260902210616 57 113 1.0 3.0 0.11 0.35 0.35 82 1008.7
20260902205616 57 90 2.0 4.0 0.13 0.34 0.34 81 1008.6
20260902204616 57 113 3.0 4.0 0.13 0.33 0.33 80 1008.4
20260902203615 57 90 4.0 8.0 0.12 0.31 0.31 80 1008.2
20260902202616 57 90 3.0 4.0 0.10 0.28 0.28 78 1008.3
20260902201616 57 90 1.0 2.0 0.09 0.26 0.26 78 1008.4
20260902200616 57 68 2.0 3.0 0.08 0.24 0.24 78 1008.5
20260902195616 58 90 3.0 7.0 0.06 0.21 0.21 78 1008.4
20260902194615 58 90 2.0 3.0 0.07 0.20 0.20 77 1008.5
20260902193615 58 90 3.0 6.0 0.08 0.19 0.19 75 1008.7
20260902192636 58 68 1.0 3.0 0.09 0.18 0.18 74 1008.6
20260902191636 58 113 1.0 2.0 0.10 0.17 0.17 74 1008.8
20260902190615 58 90 2.0 3.0 0.12 0.16 0.16 70 1009.0
20260902185616 58 90 3.0 4.0 0.12 0.15 0.15 68 1009.2
20260902184616 59 158 1.0 2.0 0.12 0.13 0.13 66 1009.3
20260902183615 59 225 1.0 1.0 0.11 0.11 0.11 67 1009.5
20260902182616 60 225 1.0 2.0 0.09 0.09 0.09 67 1009.7
20260902181615 60 0.0 1.0 0.07 0.07 0.07 66 1009.5
20260902180616 61 0.0 0.0 0.04 0.04 0.04 65 1009.4
20260902175615 62 0.0 0.0 0.03 0.03 0.03 65 1009.3
20260902174616 62 0.0 0.0 0.01 0.01 0.01 65 1009.1
20260902173616 62 90 1.0 1.0 0.00 0.00 0.00 64 1009.1
20260902172616 63 0.0 0.0 0.00 0.00 0.00 61 1009.1
20260902171616 63 0.0 1.0 0.00 0.00 0.00 61 1008.9
20260902170635 62 0.0 0.0 0.00 0.00 0.00 57 1008.9
20260902165616 62 90 1.0 3.0 0.00 0.00 0.00 58 1008.9
20260902164615 62 113 2.0 3.0 0.00 0.00 0.00 58 1008.8
20260902163615 62 113 1.0 2.0 0.00 0.00 0.00 59 1008.8
20260902162615 62 135 1.0 2.0 0.00 0.00 0.00 58 1008.9
20260902161615 61 68 2.0 4.0 0.00 0.00 0.00 58 1008.9
20260902160636 61 113 1.0 2.0 0.00 0.00 0.00 59 1008.9
20260902155615 61 90 3.0 6.0 0.00 0.00 0.00 59 1008.9
20260902154615 61 90 3.0 7.0 0.00 0.00 0.00 59 1009.0
20260902153615 60 90 2.0 4.0 0.00 0.00 0.00 60 1009.2
20260902152615 60 90 2.0 4.0 0.00 0.00 0.00 60 1009.2
20260902151635 59 90 3.0 6.0 0.00 0.00 0.00 62 1009.3
20260902150615 59 90 3.0 7.0 0.00 0.00 0.00 62 1009.3
20260902145635 59 90 3.0 5.0 0.00 0.00 0.00 62 1009.5
20260902144619 59 113 1.0 2.0 0.00 0.00 0.00 62 1009.5
20260902143617 59 90 2.0 2.0 0.00 0.00 0.00 62 1009.7
20260902142637 59 68 2.0 4.0 0.00 0.00 0.00 62 1009.9
20260902141617 59 90 1.0 2.0 0.00 0.00 0.00 62 1010.0
20260902140715 59 90 2.0 4.0 0.00 0.00 0.00 61 1010.2
20260902135617 59 90 2.0 4.0 0.00 0.00 0.00 62 1010.3
20260902134617 59 90 1.0 3.0 0.00 0.00 0.00 62 1010.4
20260902133617 58 90 1.0 2.0 0.00 0.00 0.00 62 1010.5
20260902132619 58 90 2.0 3.0 0.00 0.00 0.00 62 1010.7
20260902131617 59 90 1.0 3.0 0.00 0.00 0.00 62 1010.7
20260902130619 59 90 1.0 2.0 0.00 0.00 0.00 62 1010.9
20260902125617 59 90 1.0 4.0 0.00 0.00 0.00 62 1011.0
20260902124617 59 0.0 0.0 0.00 0.00 0.00 62 1011.2
20260902123617 59 113 1.0 3.0 0.00 0.00 0.00 62 1011.4
20260902122617 59 113 1.0 2.0 0.00 0.00 0.00 62 1011.6
20260902121637 59 113 2.0 3.0 0.00 0.00 0.00 62 1011.6
20260902120617 59 113 1.0 1.0 0.00 0.00 0.00 62 1011.7
20260902115617 59 0.0 1.0 0.00 0.00 0.00 62 1011.9
20260902114619 59 0.0 1.0 0.00 0.00 0.00 62 1011.8
20260902113617 59 113 2.0 3.0 0.00 0.00 0.00 61 1012.0
20260902112616 59 0.0 0.0 0.00 0.00 0.00 61 1012.1
20260902111616 59 135 1.0 2.0 0.00 0.00 0.00 61 1012.1
20260902110616 59 113 1.0 2.0 0.00 0.00 0.00 61 1012.3
20260902105617 59 135 2.0 3.0 0.00 0.00 0.00 61 1012.3
20260902104656 59 135 1.0 2.0 0.00 0.00 0.00 61 1012.4
20260902103638 59 0.0 0.0 0.00 0.00 0.00 61 1012.4
20260902102616 59 0.0 0.0 0.00 0.00 0.00 61 1012.5
20260902101616 59 0.0 1.0 0.00 0.00 0.00 60 1012.6
20260902100616 59 158 2.0 5.0 0.00 0.00 0.00 60 1012.5
20260902095616 59 135 1.0 3.0 0.00 0.00 0.00 61 1012.6
20260902094616 59 180 1.0 2.0 0.00 0.00 0.00 61 1012.7
20260902093617 59 135 3.0 7.0 0.00 0.00 0.00 62 1012.9
20260902092616 59 180 2.0 3.0 0.00 0.00 0.00 62 1012.8
20260902091617 60 158 2.0 4.0 0.00 0.00 0.00 61 1013.0
20260902090616 60 180 4.0 7.0 0.00 0.00 0.00 61 1013.1
20260902085636 60 135 3.0 5.0 0.00 0.00 0.00 61 1013.1
20260902084617 60 158 4.0 5.0 0.00 0.00 0.00 61 1013.1
20260902083617 60 158 3.0 4.0 0.00 0.00 0.00 61 1013.1
20260902082616 60 158 1.0 3.0 0.00 0.00 0.00 60 1013.1
20260902081616 61 158 2.0 4.0 0.00 0.00 0.00 60 1013.0
20260902080636 61 158 1.0 2.0 0.00 0.00 0.00 60 1013.0
20260902075616 61 0.0 1.0 0.00 0.00 0.00 59 1013.1
20260902074617 61 180 3.0 5.0 0.00 0.00 0.00 59 1013.2
20260902073616 61 135 1.0 2.0 0.00 0.00 0.00 59 1013.2
20260902065617 61 158 2.0 4.0 0.00 0.00 0.00 58 1013.5
20260902064617 61 180 2.0 4.0 0.00 0.00 0.00 58 1013.6
20260902063637 61 158 2.0 4.0 0.00 0.00 0.00 58 1013.6
20260902062617 61 135 1.0 2.0 0.00 0.00 0.00 58 1013.6
20260902061617 62 158 3.0 5.0 0.00 0.00 0.00 58 1013.5
20260902060616 62 158 2.0 2.0 0.00 0.00 0.00 57 1013.5
20260902055617 62 158 3.0 4.0 0.00 0.00 0.00 57 1013.7
20260902054637 62 203 2.0 5.0 0.00 0.00 0.00 57 1013.8
20260902053617 62 225 2.0 3.0 0.00 0.00 0.00 57 1013.8
20260902052617 62 158 1.0 4.0 0.00 0.00 0.00 57 1013.9
20260902051617 62 158 2.0 6.0 0.00 0.00 0.00 56 1013.7
20260902050617 62 158 1.0 2.0 0.00 0.00 0.00 56 1013.6
20260902045717 63 203 1.0 3.0 0.00 0.00 0.00 56 1013.5
20260902044617 63 180 2.0 5.0 0.00 0.00 0.00 56 1013.5
20260902043638 63 135 2.0 3.0 0.00 0.00 0.00 55 1013.5
20260902042617 63 270 3.0 5.0 0.00 0.00 0.00 55 1013.4
20260902041617 63 270 4.0 6.0 0.00 0.00 0.00 55 1013.4
20260902040617 63 248 1.0 2.0 0.00 0.00 0.00 55 1013.5
20260902035617 63 225 2.0 3.0 0.00 0.00 0.00 54 1013.3
20260902034617 64 248 2.0 3.0 0.00 0.00 0.00 54 1013.2
20260902033656 64 270 5.0 8.0 0.00 0.00 0.00 53 1013.1
20260902032617 64 270 4.0 7.0 0.00 0.00 0.00 53 1013.1
20260902031616 64 203 2.0 4.0 0.00 0.00 0.00 53 1013.2